• In Spain
  • List of Countries
  • For 7 days
  • Water Temperature
  • Satellite Maps
  • Weather Map
  • Weather Widgets
  • user-avatar
    Login

    Hourly Weather Dobre

    Today, 21 September, Friday

    Time Temperature Precipitation Wind Pressure Humidity
    00:00 +19°C° 0 mm 2 mps 749 mmHg 63%
    01:00 +18°C° 0 mm 2 mps 749 mmHg 64%
    02:00 +18°C° 0 mm 2 mps 749 mmHg 64%
    03:00 +18°C° 0 mm 2 mps 748 mmHg 65%
    04:00 +17°C° 0 mm 2 mps 748 mmHg 65%
    05:00 +18°C° 0 mm 3 mps 748 mmHg 64%
    06:00 +18°C° 0 mm 3 mps 748 mmHg 62%
    07:00 +19°C° 0 mm 3 mps 748 mmHg 60%
    08:00 +21°C° 0 mm 4 mps 748 mmHg 54%
    09:00 +23°C° 0 mm 4 mps 748 mmHg 49%
    10:00 +26°C° 0 mm 4 mps 748 mmHg 43%
    11:00 +27°C° 0 mm 5 mps 747 mmHg 41%
    12:00 +28°C° 0 mm 5 mps 746 mmHg 38%
    13:00 +28°C° 0 mm 5 mps 746 mmHg 35%
    14:00 +28°C° 0 mm 5 mps 745 mmHg 37%
    15:00 +27°C° 0 mm 5 mps 745 mmHg 39%
    16:00 +27°C° 0 mm 5 mps 744 mmHg 41%
    17:00 +25°C° 0 mm 5 mps 744 mmHg 46%
    18:00 +23°C° 0 mm 5 mps 743 mmHg 50%
    19:00 +21°C° 0 mm 5 mps 743 mmHg 54%
    20:00 +21°C° 0 mm 5 mps 743 mmHg 55%
    21:00 +21°C° 0 mm 5 mps 743 mmHg 56%
    22:00 +21°C° 0 mm 5 mps 742 mmHg 56%
    23:00 +20°C° 0.1 mm 6 mps 743 mmHg 59%

    Tomorrow, 22 September, Saturday

    Time Temperature Precipitation Wind Pressure Humidity
    00:00 +20°C° 0.1 mm 6 mps 743 mmHg 61%
    01:00 +19°C° 0.1 mm 6 mps 743 mmHg 64%
    02:00 +17°C° 0.6 mm 6 mps 744 mmHg 70%
    03:00 +15°C° 0.6 mm 6 mps 745 mmHg 76%
    04:00 +13°C° 0.6 mm 6 mps 745 mmHg 82%
    05:00 +13°C° 0.4 mm 5 mps 746 mmHg 81%
    06:00 +12°C° 0.4 mm 5 mps 747 mmHg 81%
    07:00 +12°C° 0.4 mm 4 mps 748 mmHg 81%
    08:00 +13°C° 0 mm 4 mps 748 mmHg 75%
    09:00 +13°C° 0 mm 5 mps 748 mmHg 69%
    10:00 +14°C° 0 mm 5 mps 748 mmHg 63%
    11:00 +15°C° 0 mm 5 mps 748 mmHg 58%
    12:00 +15°C° 0 mm 6 mps 748 mmHg 52%
    13:00 +16°C° 0 mm 6 mps 748 mmHg 47%
    14:00 +16°C° 0.1 mm 6 mps 748 mmHg 48%
    15:00 +16°C° 0.1 mm 6 mps 747 mmHg 49%
    16:00 +15°C° 0.1 mm 5 mps 747 mmHg 50%
    17:00 +14°C° 0 mm 4 mps 747 mmHg 55%
    18:00 +13°C° 0 mm 4 mps 747 mmHg 60%
    19:00 +11°C° 0 mm 3 mps 748 mmHg 65%
    20:00 +11°C° 0 mm 3 mps 748 mmHg 67%
    21:00 +11°C° 0 mm 3 mps 748 mmHg 69%
    22:00 +10°C° 0 mm 4 mps 748 mmHg 70%
    23:00 +10°C° 0 mm 4 mps 748 mmHg 72%

    Day after tomorrow, 23 September, Sunday

    Time Temperature Precipitation Wind Pressure Humidity
    00:00 +10°C° 0 mm 4 mps 748 mmHg 73%
    01:00 +10°C° 0 mm 4 mps 748 mmHg 74%
    02:00 +10°C° 0 mm 4 mps 748 mmHg 75%
    03:00 +8°C° 0 mm 4 mps 748 mmHg 76%
    04:00 +8°C° 0 mm 4 mps 748 mmHg 77%
    05:00 +8°C° 0 mm 5 mps 748 mmHg 74%
    06:00 +9°C° 0 mm 6 mps 749 mmHg 71%
    07:00 +9°C° 0 mm 6 mps 749 mmHg 68%
    08:00 +11°C° 0 mm 7 mps 749 mmHg 62%
    09:00 +12°C° 0 mm 7 mps 749 mmHg 57%
    10:00 +14°C° 0 mm 7 mps 749 mmHg 51%
    11:00 +15°C° 0 mm 7 mps 749 mmHg 48%
    12:00 +16°C° 0 mm 7 mps 749 mmHg 45%
    13:00 +16°C° 0 mm 7 mps 749 mmHg 42%
    14:00 +16°C° 0 mm 6 mps 748 mmHg 42%
    15:00 +16°C° 0 mm 6 mps 748 mmHg 42%
    16:00 +16°C° 0 mm 5 mps 748 mmHg 41%
    17:00 +14°C° 0 mm 4 mps 748 mmHg 44%
    18:00 +13°C° 0 mm 3 mps 747 mmHg 47%
    19:00 +13°C° 0 mm 2 mps 747 mmHg 49%
    20:00 +13°C° 0 mm 2 mps 746 mmHg 52%
    21:00 +12°C° 0 mm 3 mps 746 mmHg 55%
    22:00 +12°C° 0 mm 3 mps 745 mmHg 58%
    23:00 +12°C° 0.6 mm 3 mps 744 mmHg 65%

    24 September, Monday

    Time Temperature Precipitation Wind Pressure Humidity
    00:00 +11°C° 0.6 mm 4 mps 742 mmHg 72%
    01:00 +11°C° 0.6 mm 4 mps 741 mmHg 80%
    02:00 +10°C° 3.7 mm 5 mps 739 mmHg 83%
    03:00 +10°C° 3.7 mm 6 mps 737 mmHg 87%
    04:00 +10°C° 3.7 mm 6 mps 736 mmHg 91%
    05:00 +11°C° 3.5 mm 7 mps 734 mmHg 90%
    06:00 +12°C° 3.5 mm 7 mps 732 mmHg 89%
    07:00 +13°C° 3.5 mm 8 mps 731 mmHg 88%
    08:00 +15°C° 1.2 mm 9 mps 730 mmHg 84%
    09:00 +16°C° 1.2 mm 10 mps 729 mmHg 80%
    10:00 +17°C° 1.2 mm 11 mps 727 mmHg 75%
    11:00 +16°C° 0.8 mm 10 mps 727 mmHg 76%
    12:00 +15°C° 0.8 mm 9 mps 727 mmHg 78%
    13:00 +13°C° 0.8 mm 9 mps 727 mmHg 79%
    14:00 +12°C° 0.4 mm 10 mps 729 mmHg 79%
    15:00 +9°C° 0.4 mm 12 mps 730 mmHg 79%
    16:00 +6°C° 0.4 mm 14 mps 732 mmHg 79%
    17:00 +7°C° 0.2 mm 13 mps 734 mmHg 78%
    18:00 +7°C° 0.2 mm 13 mps 736 mmHg 78%
    19:00 +8°C° 0.2 mm 12 mps 738 mmHg 77%
    20:00 +7°C° 0.4 mm 12 mps 740 mmHg 78%
    21:00 +7°C° 0.4 mm 11 mps 742 mmHg 78%
    22:00 +7°C° 0.4 mm 11 mps 743 mmHg 79%
    23:00 +6°C° 0.3 mm 11 mps 745 mmHg 78%

    25 September, Tuesday

    Time Temperature Precipitation Wind Pressure Humidity
    00:00 +6°C° 0.3 mm 10 mps 746 mmHg 78%
    01:00 +6°C° 0.3 mm 10 mps 747 mmHg 78%
    02:00 +6°C° 0.3 mm 10 mps 748 mmHg 77%
    03:00 +6°C° 0.3 mm 9 mps 748 mmHg 76%
    04:00 +5°C° 0.3 mm 9 mps 749 mmHg 75%
    05:00 +6°C° 0 mm 9 mps 750 mmHg 74%
    06:00 +6°C° 0 mm 9 mps 751 mmHg 72%
    07:00 +6°C° 0 mm 9 mps 751 mmHg 71%
    08:00 +7°C° 0.1 mm 9 mps 752 mmHg 64%
    09:00 +8°C° 0.1 mm 9 mps 753 mmHg 57%
    10:00 +9°C° 0.1 mm 10 mps 753 mmHg 50%
    11:00 +11°C° 0 mm 10 mps 753 mmHg 48%
    12:00 +11°C° 0 mm 9 mps 753 mmHg 45%
    13:00 +12°C° 0 mm 9 mps 753 mmHg 42%
    14:00 +12°C° 0.1 mm 9 mps 753 mmHg 45%
    15:00 +11°C° 0.1 mm 8 mps 752 mmHg 48%
    16:00 +11°C° 0.1 mm 7 mps 752 mmHg 52%
    17:00 +10°C° 0.2 mm 8 mps 751 mmHg 59%
    18:00 +8°C° 0.2 mm 9 mps 751 mmHg 67%
    19:00 +7°C° 0.2 mm 9 mps 750 mmHg 74%
    20:00 +7°C° 0.5 mm 9 mps 750 mmHg 77%
    21:00 +7°C° 0.5 mm 8 mps 749 mmHg 79%
    22:00 +6°C° 0.5 mm 7 mps 749 mmHg 82%
    23:00 +6°C° 0.1 mm 7 mps 749 mmHg 82%

    26 September, Wednesday

    Time Temperature Precipitation Wind Pressure Humidity
    00:00 +6°C° 0.1 mm 7 mps 749 mmHg 81%
    01:00 +5°C° 0.1 mm 6 mps 749 mmHg 81%
    02:00 +5°C° 0.1 mm 7 mps 749 mmHg 82%
    03:00 +5°C° 0.1 mm 7 mps 750 mmHg 84%
    04:00 +6°C° 0.1 mm 7 mps 751 mmHg 86%
    05:00 +7°C° 0 mm 6 mps 752 mmHg 86%
    06:00 +7°C° 0 mm 6 mps 752 mmHg 86%
    07:00 +7°C° 0 mm 5 mps 753 mmHg 86%
    08:00 +8°C° 0 mm 5 mps 754 mmHg 79%
    09:00 +9°C° 0 mm 5 mps 755 mmHg 72%
    10:00 +12°C° 0 mm 5 mps 755 mmHg 64%
    11:00 +13°C° 0.1 mm 5 mps 755 mmHg 60%
    12:00 +13°C° 0.1 mm 6 mps 756 mmHg 56%
    13:00 +14°C° 0.1 mm 6 mps 756 mmHg 51%
    14:00 +14°C° 0 mm 5 mps 756 mmHg 52%
    15:00 +14°C° 0 mm 5 mps 756 mmHg 53%
    16:00 +13°C° 0 mm 5 mps 756 mmHg 54%
    17:00 +12°C° 0 mm 4 mps 756 mmHg 58%
    18:00 +10°C° 0 mm 3 mps 756 mmHg 62%
    19:00 +9°C° 0 mm 3 mps 757 mmHg 66%
    20:00 +9°C° 0 mm 2 mps 757 mmHg 67%
    21:00 +8°C° 0 mm 2 mps 757 mmHg 68%
    22:00 +8°C° 0 mm 2 mps 757 mmHg 69%
    23:00 +8°C° 0 mm 2 mps 757 mmHg 72%
    Show more